[[{"header":{"parameterUnit":"m.s-1","parameterCategory":1,"la1":30.2991,"la2":30.254,"lo1":-89.0895,"lo2":-89.0444,"dy":0.0017,"dx":0.0017,"nx":28,"ny":28,"refTime":"2024-07-30T03:00:00:Z","depth":0,"parameterNumber":2,"parameterNumberName":"U-component_of_WINDS"},"data":[0,0,0,0,0,0,0,0,0,0,0,0,0,0,0,0,0,0,0,0,0,0,0,0,0,0,0,0,0,0,0,0,0,0,0,0,0,0,0,0,0,0,0,0,0,0,0,0,0,0,0,0,0,0,0,0,0,0,1.5052,1.5054,0,1.516,1.5161,1.5163,1.5128,1.5126,1.5123,1.5121,1.5237,1.5242,1.5248,0,0,0,0,0,0,0,0,0,0,0,0,0,1.4822,1.4827,1.5052,1.5054,1.5055,1.516,1.5161,1.5163,1.5128,1.5126,1.5123,1.512,1.5236,1.5242,1.5248,0,0,0,0,0,0,0,0,0,0,0,0,0,1.4925,1.4828,1.5052,1.505,1.5051,1.516,1.5161,1.5163,1.5129,1.5125,1.5122,1.5119,1.5234,1.5241,1.5249,1.5368,0,0,1.5273,1.5277,0,0,0,0,0,0,0,0,1.492,1.4934,1.5049,1.5051,1.5052,1.5127,1.5123,1.5232,1.513,1.51,1.5121,1.5117,1.5204,1.5214,1.5242,1.5373,1.5378,1.5274,1.5279,1.5282,1.5284,0,0,0,0,0,0,0,1.4912,1.4929,1.5095,1.5051,1.5053,1.5046,1.5057,1.5143,1.517,1.5102,1.51,1.5113,1.5204,1.5234,1.5244,1.538,1.5274,1.5281,1.5285,1.5289,1.5614,1.5618,0,0,0,0,0,0,1.4904,1.4923,1.5092,1.5098,1.4976,1.5053,1.5065,1.5106,1.5169,1.5175,1.5115,1.5111,1.5223,1.5235,1.5248,1.5392,1.5282,1.5289,1.5294,1.561,1.5615,1.5619,0,0,0,0,0,0,1.4899,1.4919,1.5087,1.501,1.5031,1.506,1.5107,1.511,1.5141,1.5179,1.5184,1.5141,1.522,1.5237,1.5338,1.5395,1.5293,1.53,1.5606,1.5612,1.5617,1.568,0,0,0,0,0,0,1.4892,1.4918,1.4962,1.5011,1.5035,1.5174,1.5111,1.5115,1.5154,1.5148,1.5205,1.5211,1.5219,1.5326,1.5346,1.5405,1.5306,1.5601,1.5608,1.5615,1.5673,1.5687,1.5699,0,0,0,0,0,1.4884,1.4976,1.4964,1.4985,1.5091,1.5177,1.5191,1.5197,1.5159,1.5204,1.5229,1.5209,1.5386,1.5337,1.5359,1.5421,1.5597,1.5606,1.5615,1.5667,1.5684,1.5699,0,0,0,0,0,0,1.4934,1.4983,1.497,1.508,1.5124,1.5171,1.5228,1.5215,1.5272,1.5265,1.5272,1.5285,1.5388,1.5414,1.5359,1.5539,1.5486,1.55,1.5518,1.5535,1.5548,1.554,1.5313,0,0,0,0,0,1.4958,1.5022,1.5061,1.5155,1.5178,1.5199,1.5237,1.5237,1.5284,1.5304,1.5336,1.5384,1.545,1.5494,1.5557,1.5676,1.5688,1.5729,1.5742,1.5753,1.5765,1.5831,1.585,1.5648,1.5648,1.5648,0,0,1.5008,1.5042,1.5083,1.5166,1.52,1.5268,1.5215,1.529,1.5341,1.5316,1.5412,1.5437,1.5492,1.5602,1.5652,1.5627,1.5823,1.5764,1.5772,1.5779,1.5842,1.5861,1.5878,1.5654,1.5653,1.5652,0,0,1.5134,1.5165,1.5247,1.5282,1.5334,1.5348,1.5368,1.5416,1.5432,1.5528,1.5511,1.5572,1.5686,1.5725,1.5761,1.5901,1.5886,1.5921,1.5991,1.6055,1.6071,1.6085,1.6137,1.6155,1.5933,1.5933,1.5933,0,1.519,1.529,1.5291,1.5367,1.5405,1.5383,1.5467,1.5501,1.5572,1.56,1.557,1.5712,1.5747,1.5866,1.59,1.5929,1.5953,1.5916,1.6068,1.6083,1.6096,1.6145,1.6164,1.5937,1.5937,1.5936,1.5936,0,1.5357,1.5427,1.5487,1.5554,1.5598,1.5678,1.5693,1.5738,1.5734,1.5752,1.5851,1.5892,1.5963,1.5991,1.5989,1.6111,1.6093,1.6066,1.6013,1.6119,1.6165,1.6184,1.5943,1.5942,1.594,1.5939,0,0,1.5519,1.5585,1.5607,1.5637,1.5693,1.5748,1.5827,1.5894,1.5934,1.5983,1.6051,1.6147,1.6122,1.6161,1.6163,1.6219,1.6329,1.6185,1.6187,1.6212,1.6467,1.6489,1.651,1.6319,1.6322,1.6325,1.6463,0,1.5651,1.5787,1.5791,1.5917,1.5982,1.5962,1.6031,1.6073,1.6092,1.6151,1.6172,1.624,1.6201,1.6225,1.6279,1.6304,1.6381,1.6294,1.6384,1.6387,1.6372,1.6534,1.6557,1.6685,1.6481,1.6484,1.6486,0,1.5823,1.5876,1.6008,1.6054,1.6082,1.6143,1.6206,1.6262,1.631,1.632,1.6363,1.6357,1.644,1.6383,1.6497,1.6438,1.6475,1.6493,1.6498,1.6508,1.6444,1.655,1.6726,1.6746,1.6515,1.6512,1.651,0,1.5929,1.6034,1.6126,1.6153,1.6209,1.6253,1.6278,1.6323,1.6363,1.6418,1.6445,1.6509,1.6545,1.6596,1.6608,1.6565,1.6723,1.6667,1.6735,1.6735,1.677,1.6768,1.6957,1.6792,1.6791,1.6791,1.6791,0,1.6077,1.6159,1.6175,1.6232,1.6324,1.6327,1.6418,1.6441,1.6481,1.6543,1.653,1.6589,1.66,1.6663,1.6672,1.6766,1.6783,1.6794,1.6796,1.6796,1.6795,1.6821,1.6813,1.6796,1.6795,1.6794,1.6793,0,1.6212,1.6225,1.6325,1.6369,1.6382,1.6448,1.6487,1.6542,1.6558,1.6638,1.6657,1.6683,1.6755,1.6771,1.6858,1.6865,1.6976,1.6969,1.696,1.696,1.7027,1.7021,1.724,1.7269,1.7084,1.7086,1.7087,0,1.6305,1.6368,1.6418,1.6458,1.6485,1.655,1.659,1.6596,1.664,1.6699,1.6748,1.6818,1.6875,1.6992,1.702,1.7087,1.7081,1.7154,1.7092,1.709,1.7084,1.7081,1.7087,1.7166,1.7168,1.717,1.7171,0,1.6471,1.6474,1.6533,1.6594,1.6642,1.6691,1.6737,1.6771,1.6784,1.6833,1.6906,1.695,1.7037,1.7108,1.7175,1.7203,1.719,1.719,1.7209,1.7211,1.7203,1.7209,1.6993,1.7185,1.7184,1.7183,1.7182,1.7182,1.6589,1.6644,1.6687,1.6753,1.6788,1.6832,1.6886,1.6908,1.6968,1.7039,1.7039,1.7119,1.7166,1.7253,1.7285,1.7349,1.7327,1.7355,1.7362,1.7369,1.7376,1.7192,1.7361,1.7361,1.736,1.736,1.736,0,1.6755,1.6782,1.6842,1.6906,1.6958,1.6939,1.6989,1.7034,1.7104,1.7148,1.7204,1.7288,1.7356,1.7389,1.7457,1.7502,1.7497,1.7519,1.7517,1.7524,1.7391,1.7368,1.7522,1.7522,1.7521,1.7521,1.7521,1.7521,1.6848,1.6939,1.6948,1.7057,1.7083,1.716,1.7191,1.7231,1.7266,1.736,1.7416,1.7436,1.7476,1.7547,1.7609,1.7617,1.7643,1.7668,1.7674,1.755,1.7533,1.7518,1.7496,1.7674,1.7674,1.7801,1.7802,1.7803]},{"header":{"parameterUnit":"m.s-1","parameterCategory":1,"la1":30.2991,"la2":30.254,"lo1":-89.0895,"lo2":-89.0444,"dy":0.0017,"dx":0.0017,"nx":28,"ny":28,"refTime":"2024-07-30T03:00:00:Z","depth":0,"parameterNumber":3,"parameterNumberName":"V-component_of_WINDS"},"data":[0,0,0,0,0,0,0,0,0,0,0,0,0,0,0,0,0,0,0,0,0,0,0,0,0,0,0,0,0,0,0,0,0,0,0,0,0,0,0,0,0,0,0,0,0,0,0,0,0,0,0,0,0,0,0,0,0,0,2.3315,2.3315,0,2.3361,2.3362,2.3362,2.3393,2.3393,2.3393,2.3394,2.3437,2.3438,2.3439,0,0,0,0,0,0,0,0,0,0,0,0,0,2.3247,2.3248,2.3315,2.3315,2.3316,2.3361,2.3362,2.3362,2.3393,2.3393,2.3393,2.3394,2.3437,2.3438,2.3439,0,0,0,0,0,0,0,0,0,0,0,0,0,2.3283,2.3249,2.3315,2.3337,2.3339,2.3361,2.3362,2.3362,2.3393,2.3393,2.3394,2.3394,2.3437,2.3438,2.344,2.3442,0,0,2.3444,2.3445,0,0,0,0,0,0,0,0,2.3281,2.3286,2.3333,2.3335,2.3338,2.3372,2.3354,2.3389,2.3393,2.3372,2.3394,2.3394,2.3415,2.3418,2.3426,2.3444,2.3446,2.3444,2.3445,2.3446,2.3446,0,0,0,0,0,0,0,2.3279,2.3284,2.3333,2.3333,2.3337,2.3342,2.3348,2.3361,2.3391,2.3374,2.3377,2.3382,2.3416,2.3425,2.3427,2.3446,2.3444,2.3445,2.3446,2.3447,2.3464,2.3464,0,0,0,0,0,0,2.3273,2.3282,2.3331,2.3334,2.331,2.3343,2.335,2.336,2.3391,2.3396,2.3381,2.3383,2.3422,2.3426,2.3429,2.3431,2.3446,2.3447,2.3448,2.3465,2.3464,2.3464,0,0,0,0,0,0,2.3272,2.3278,2.333,2.3309,2.3316,2.3344,2.3356,2.3361,2.337,2.3397,2.3402,2.3385,2.3422,2.3427,2.3438,2.3433,2.3448,2.3449,2.3465,2.3465,2.3464,2.3438,0,0,0,0,0,0,2.327,2.3277,2.328,2.3309,2.3317,2.3339,2.3356,2.3362,2.3372,2.3375,2.3401,2.3406,2.3423,2.3435,2.3439,2.3436,2.345,2.3466,2.3465,2.3464,2.3439,2.3436,2.3434,0,0,0,0,0,2.3267,2.327,2.328,2.3285,2.3321,2.3339,2.3344,2.3365,2.3372,2.3374,2.339,2.3405,2.3433,2.3436,2.3441,2.3438,2.3466,2.3465,2.3464,2.344,2.3437,2.3434,0,0,0,0,0,0,2.324,2.3275,2.3285,2.3298,2.3315,2.3344,2.3348,2.3361,2.3376,2.3377,2.3402,2.3407,2.3415,2.3427,2.343,2.3439,2.3451,2.3451,2.3431,2.3428,2.3426,2.3422,2.3451,0,0,0,0,0,2.3236,2.3249,2.3278,2.3286,2.3294,2.3319,2.3328,2.3342,2.3361,2.3368,2.3386,2.3402,2.3414,2.3422,2.3435,2.3441,2.3445,2.344,2.3438,2.3435,2.3435,2.3435,2.3433,2.3461,2.3461,2.3461,0,0,2.3227,2.3247,2.3254,2.3281,2.3297,2.3307,2.3325,2.3337,2.3345,2.337,2.3381,2.3394,2.3413,2.342,2.3425,2.3431,2.3428,2.3434,2.3432,2.3433,2.3434,2.3431,2.3429,2.346,2.346,2.346,0,0,2.3216,2.3234,2.3241,2.3256,2.3278,2.3294,2.3295,2.3322,2.3331,2.3343,2.3361,2.3369,2.3391,2.3403,2.3412,2.3401,2.3413,2.3404,2.3391,2.3391,2.3389,2.3387,2.3381,2.3378,2.3404,2.3404,2.3404,0,2.3202,2.3221,2.3243,2.3253,2.3263,2.3286,2.3292,2.3305,2.333,2.3335,2.3342,2.3367,2.3382,2.3391,2.3388,2.3395,2.3396,2.3402,2.3387,2.3386,2.3384,2.3379,2.3376,2.3402,2.3403,2.3403,2.3403,0,2.3201,2.3213,2.3216,2.324,2.325,2.3258,2.328,2.3287,2.33,2.3314,2.3323,2.3341,2.3357,2.336,2.3373,2.337,2.3373,2.3383,2.3395,2.338,2.3375,2.3373,2.34,2.3401,2.3401,2.3402,0,0,2.3177,2.321,2.3211,2.322,2.3245,2.3254,2.3261,2.3277,2.3281,2.3297,2.3302,2.3318,2.3327,2.3337,2.335,2.3351,2.3338,2.3361,2.3362,2.3354,2.3332,2.3323,2.332,2.3346,2.3346,2.3346,2.333,0,2.3169,2.3185,2.3203,2.3212,2.3222,2.3241,2.3247,2.3261,2.3274,2.3283,2.3296,2.3306,2.3318,2.3324,2.3325,2.3339,2.3333,2.3341,2.3349,2.3349,2.3342,2.3318,2.331,2.3294,2.3328,2.3328,2.3328,0,2.3163,2.3176,2.3186,2.3206,2.3211,2.3216,2.323,2.3239,2.3253,2.3262,2.3271,2.3286,2.3291,2.3302,2.3309,2.3313,2.3317,2.3324,2.3324,2.3325,2.3337,2.3317,2.329,2.3287,2.3325,2.3325,2.3325,0,2.3141,2.3162,2.317,2.3177,2.3202,2.3204,2.3214,2.323,2.3237,2.3248,2.3252,2.3264,2.327,2.3277,2.3293,2.33,2.3297,2.331,2.3302,2.3302,2.3301,2.33,2.3272,2.3305,2.3305,2.3305,2.3305,0,2.313,2.3135,2.316,2.3165,2.3169,2.3189,2.3192,2.3204,2.3216,2.3222,2.3239,2.3243,2.3264,2.327,2.3282,2.3284,2.3287,2.3292,2.3295,2.329,2.3289,2.3293,2.3294,2.3305,2.3305,2.3305,2.3305,0,2.3108,2.3126,2.3135,2.3156,2.3161,2.3163,2.3181,2.3184,2.3197,2.3203,2.3205,2.3224,2.3231,2.3247,2.3259,2.3267,2.3265,2.3272,2.326,2.3262,2.3253,2.3252,2.3225,2.3221,2.3258,2.3257,2.3257,0,2.31,2.3104,2.3124,2.3129,2.3138,2.3146,2.3153,2.3171,2.3177,2.3192,2.3193,2.3201,2.3209,2.3219,2.3233,2.3241,2.3246,2.3236,2.3248,2.3241,2.3244,2.3243,2.3242,2.3233,2.3233,2.3232,2.3232,0,2.3082,2.309,2.3099,2.311,2.3117,2.3127,2.3137,2.314,2.316,2.3165,2.3172,2.3178,2.3189,2.3196,2.3205,2.3213,2.3225,2.3228,2.3226,2.3221,2.3213,2.3215,2.3251,2.3229,2.3229,2.3229,2.3229,2.3229,2.3066,2.3069,2.3083,2.3091,2.3101,2.3109,2.3112,2.3124,2.3131,2.3141,2.3151,2.3156,2.3167,2.3181,2.3188,2.3191,2.3197,2.3195,2.3194,2.3193,2.319,2.3213,2.3193,2.3193,2.3193,2.3193,2.3193,0,2.3048,2.3057,2.3064,2.3077,2.3083,2.3093,2.3104,2.3108,2.3113,2.3122,2.3129,2.3135,2.3141,2.3154,2.316,2.316,2.3165,2.3161,2.316,2.3161,2.3185,2.3185,2.3156,2.3156,2.3156,2.3156,2.3156,2.3156,2.3039,2.3043,2.3051,2.3059,2.3067,2.3073,2.3078,2.3084,2.3092,2.3098,2.3103,2.3111,2.3121,2.3127,2.3132,2.3135,2.3136,2.313,2.3134,2.3156,2.316,2.3163,2.3163,2.313,2.313,2.311,2.311,2.3109]}]]